Location: Aufkirchen
(47.9603°N, 11.3653°E)
Time: 09:16:35
(UTC+01:00)

Tiros 1 - Pass Details

Date: 05 December 2020
Orbit: 630 x 663 km, 48.4° (Epoch: 28 January)

Event Time Altitude Azimuth Distance (km) Brightness Sun altitude
Rises 18:46:47 0° 285° (WNW) 2,993 11.7 -23.3°
Reaches altitude 10° 18:49:19 10° 276° (W) 2,075 10.8 -23.7°
Maximum altitude 18:53:34 32° 214° (SSW) 1,113 8.6 -24.4°
Enters shadow 18:55:38 23° 170° (S) 1,394 8.8 -24.7°
Drops below altitude 10° 18:57:47 10° 151° (SSE) 2,050 - -25.1°
Sets 19:00:17 0° 141° (SE) 2,952 - -25.5°
